QPF
0.00 0.00 0.00 0.00 0.00 0.00 0.00 0.00 0.00 0.00 0.00 0.00 0.00 0.00 0.00 0.00 0.00 0.00 0.00 0.00 0.01 0.00 0.00 0.00 0.00 0.01 0.01 0.01 0.01 0.02 0.03 0.02 0.03 0.03 0.04 0.05 0.06 0.06 0.07 0.07 0.07 0.05 0.04 0.05
0.00 0.00 0.00 0.00 0.00 0.00 0.00 0.00 0.00 0.00 0.00 0.00 0.00 0.00 0.00 0.00 0.00 0.00 0.00 0.00 0.00 0.00 0.00 0.00 0.00 0.00 0.01 0.01 0.02 0.02 0.02 0.02 0.02 0.02 0.04 0.05 0.05 0.05 0.05 0.05 0.06 0.06 0.05 0.05
0.00 0.00 0.00 0.00 0.00 0.00 0.00 0.00 0.00 0.00 0.00 0.00 0.00 0.00 0.00 0.00 0.00 0.00 0.00 0.00 0.00 0.00 0.00 0.00 0.00 0.00 0.00 0.00 0.02 0.02 0.01 0.02 0.03 0.02 0.03 0.04 0.04 0.04 0.04 0.05 0.06 0.05 0.04 0.04
0.00 0.00 0.00 0.00 0.00 0.00 0.00 0.00 0.00 0.00 0.00 0.00 0.00 0.00 0.00 0.00 0.00 0.00 0.00 0.00 0.00 0.00 0.00 0.00 0.00 0.00 0.00 0.01 0.03 0.02 0.01 0.02 0.02 0.03 0.03 0.03 0.04 0.04 0.06 0.06 0.05 0.05 0.04 0.04
0.00 0.00 0.00 0.00 0.00 0.00 0.00 0.00 0.00 0.00 0.00 0.00 0.00 0.00 0.00 0.00 0.00 0.00 0.00 0.00 0.00 0.00 0.00 0.00 0.00 0.00 0.00 0.02 0.05 0.01 0.01 0.01 0.02 0.03 0.02 0.02 0.04 0.06 0.06 0.05 0.05 0.05 0.05 0.04
0.00 0.00 0.00 0.00 0.00 0.00 0.00 0.00 0.00 0.00 0.00 0.00 0.00 0.00 0.00 0.00 0.00 0.00 0.00 0.00 0.00 0.00 0.00 0.00 0.00 0.00 0.01 0.02 0.01 0.01 0.01 0.01 0.01 0.01 0.02 0.04 0.06 0.07 0.07 0.08 0.07 0.07 0.07 0.06
0.00 0.00 0.00 0.00 0.00 0.00 0.00 0.00 0.00 0.00 0.00 0.00 0.00 0.00 0.00 0.00 0.00 0.00 0.00 0.00 0.00 0.00 0.00 0.00 0.00 0.00 0.00 0.01 0.00 0.00 0.00 0.01 0.01 0.01 0.01 0.03 0.08 0.11 0.12 0.10 0.06 0.06 0.06 0.07
0.00 0.00 0.00 0.00 0.00 0.00 0.00 0.00 0.00 0.00 0.00 0.00 0.00 0.00 0.00 0.00 0.00 0.00 0.00 0.00 0.00 0.00 0.00 0.00 0.00 0.00 0.00 0.00 0.01 0.00 0.01 0.01 0.01 0.02 0.04 0.09 0.14 0.14 0.11 0.08 0.06 0.07 0.08 0.09
0.00 0.00 0.00 0.00 0.00 0.00 0.00 0.00 0.00 0.00 0.00 0.00 0.00 0.00 0.00 0.00 0.00 0.00 0.00 0.00 0.00 0.00 0.00 0.00 0.00 0.00 0.00 0.00 0.00 0.00 0.00 0.00 0.01 0.02 0.05 0.07 0.07 0.07 0.06 0.05 0.05 0.06 0.07 0.09
0.00 0.00 0.00 0.00 0.00 0.00 0.00 0.00 0.00 0.00 0.00 0.00 0.00 0.00 0.00 0.00 0.00 0.00 0.00 0.00 0.00 0.00 0.00 0.00 0.00 0.00 0.00 0.00 0.00 0.00 0.00 0.00 0.01 0.01 0.01 0.02 0.02 0.04 0.05 0.05 0.04 0.06 0.08 0.07
0.00 0.00 0.00 0.00 0.00 0.00 0.00 0.00 0.00 0.00 0.00 0.00 0.00 0.00 0.00 0.00 0.00 0.00 0.00 0.00 0.00 0.00 0.00 0.00 0.00 0.00 0.00 0.00 0.00 0.00 0.00 0.00 0.01 0.01 0.01 0.01 0.02 0.02 0.02 0.03 0.04 0.05 0.06 0.06
0.00 0.00 0.00 0.00 0.00 0.00 0.00 0.00 0.00 0.00 0.00 0.00 0.00 0.00 0.00 0.00 0.00 0.00 0.00 0.00 0.00 0.00 0.00 0.00 0.00 0.00 0.00 0.00 0.00 0.00 0.00 0.01 0.01 0.01 0.01 0.01 0.02 0.02 0.02 0.03 0.03 0.04 0.05 0.05
0.00 0.00 0.00 0.00 0.00 0.00 0.00 0.00 0.00 0.00 0.00 0.00 0.00 0.00 0.00 0.00 0.00 0.00 0.00 0.00 0.00 0.00 0.00 0.00 0.00 0.00 0.00 0.00 0.00 0.00 0.00 0.00 0.01 0.01 0.01 0.01 0.01 0.02 0.02 0.02 0.03 0.04 0.04 0.04
0.00 0.00 0.00 0.00 0.00 0.00 0.00 0.00 0.00 0.00 0.00 0.00 0.00 0.00 0.00 0.00 0.00 0.00 0.00 0.00 0.00 0.00 0.00 0.00 0.00 0.00 0.00 0.00 0.00 0.00 0.00 0.01 0.01 0.01 0.01 0.02 0.02 0.02 0.02 0.02 0.03 0.03 0.02 0.02
0.00 0.00 0.00 0.00 0.00 0.00 0.00 0.00 0.00 0.00 0.00 0.00 0.00 0.00 0.00 0.00 0.00 0.00 0.00 0.01 0.01 0.01 0.00 0.00 0.00 0.01 0.01 0.01 0.00 0.00 0.00 0.01 0.01 0.02 0.03 0.05 0.03 0.02 0.02 0.02 0.03 0.03 0.03 0.02
0.00 0.00 0.00 0.00 0.00 0.00 0.00 0.00 0.00 0.00 0.00 0.00 0.00 0.00 0.00 0.00 0.00 0.00 0.01 0.01 0.01 0.01 0.01 0.00 0.01 0.01 0.01 0.01 0.00 0.00 0.00 0.01 0.01 0.02 0.02 0.03 0.03 0.03 0.04 0.05 0.05 0.04 0.05 0.05
0.00 0.00 0.00 0.00 0.00 0.00 0.00 0.00 0.00 0.00 0.00 0.00 0.00 0.00 0.00 0.00 0.00 0.00 0.00 0.00 0.00 0.00 0.00 0.00 0.01 0.01 0.01 0.01 0.00 0.00 0.00 0.01 0.01 0.01 0.02 0.04 0.08 0.12 0.11 0.06 0.03 0.02 0.03 0.04
0.00 0.00 0.00 0.00 0.00 0.00 0.00 0.00 0.00 0.00 0.00 0.00 0.00 0.00 0.00 0.00 0.00 0.00 0.00 0.00 0.00 0.00 0.00 0.00 0.01 0.01 0.01 0.01 0.00 0.00 0.00 0.01 0.01 0.02 0.03 0.05 0.09 0.08 0.06 0.04 0.03 0.04 0.05 0.05
0.00 0.00 0.00 0.00 0.00 0.00 0.00 0.00 0.00 0.00 0.00 0.00 0.00 0.00 0.00 0.00 0.00 0.00 0.00 0.00 0.00 0.00 0.00 0.00 0.00 0.01 0.01 0.01 0.00 0.00 0.01 0.01 0.02 0.02 0.03 0.05 0.07 0.07 0.07 0.06 0.06 0.05 0.04 0.05
0.00 0.00 0.00 0.00 0.00 0.00 0.00 0.00 0.00 0.00 0.00 0.01 0.02 0.01 0.01 0.01 0.01 0.01 0.00 0.00 0.00 0.00 0.00 0.00 0.00 0.00 0.00 0.01 0.01 0.00 0.00 0.01 0.01 0.02 0.04 0.05 0.08 0.09 0.07 0.05 0.04 0.04 0.03 0.03
0.00 0.00 0.00 0.00 0.00 0.00 0.00 0.00 0.01 0.01 0.01 0.01 0.01 0.01 0.01 0.01 0.01 0.01 0.00 0.00 0.00 0.00 0.00 0.00 0.00 0.00 0.00 0.00 0.01 0.01 0.01 0.02 0.02 0.03 0.03 0.02 0.02 0.02 0.02 0.01 0.02 0.02 0.02 0.03
0.01 0.00 0.00 0.00 0.00 0.00 0.00 0.00 0.01 0.02 0.01 0.01 0.00 0.00 0.00 0.00 0.01 0.01 0.01 0.01 0.00 0.00 0.01 0.01 0.00 0.00 0.00 0.01 0.01 0.01 0.01 0.01 0.02 0.02 0.02 0.02 0.02 0.02 0.02 0.02 0.01 0.02 0.02 0.02
0.01 0.01 0.00 0.00 0.00 0.00 0.00 0.00 0.01 0.03 0.03 0.01 0.01 0.00 0.01 0.01 0.01 0.02 0.03 0.02 0.01 0.01 0.02 0.02 0.01 0.01 0.01 0.01 0.01 0.01 0.01 0.01 0.01 0.01 0.01 0.01 0.02 0.02 0.02 0.01 0.01 0.02 0.02 0.02
0.01 0.01 0.00 0.00 0.00 0.00 0.00 0.01 0.01 0.01 0.01 0.01 0.01 0.01 0.01 0.01 0.02 0.03 0.02 0.02 0.02 0.02 0.03 0.03 0.02 0.02 0.02 0.03 0.02 0.01 0.01 0.01 0.01 0.00 0.00 0.01 0.01 0.01 0.01 0.01 0.01 0.01 0.01 0.01
0.01 0.01 0.00 0.00 0.00 0.01 0.01 0.01 0.01 0.00 0.01 0.01 0.01 0.01 0.01 0.03 0.03 0.03 0.02 0.02 0.02 0.02 0.02 0.02 0.02 0.02 0.02 0.02 0.02 0.02 0.01 0.00 0.00 0.01 0.00 0.00 0.00 0.01 0.01 0.01 0.01 0.01 0.01 0.01
0.01 0.01 0.01 0.00 0.00 0.00 0.00 0.01 0.01 0.00 0.00 0.00 0.00 0.01 0.03 0.03 0.03 0.02 0.01 0.01 0.02 0.02 0.02 0.02 0.02 0.02 0.02 0.01 0.02 0.02 0.01 0.01 0.01 0.01 0.01 0.01 0.01 0.01 0.01 0.01 0.01 0.01 0.01 0.02
MSLP
1012.89 1013.42 1013.90 1014.30 1014.62 1014.85 1014.99 1015.04 1015.01 1014.89 1014.68 1014.40 1014.06 1013.68 1013.30 1012.94 1012.65 1012.45 1012.35 1012.36 1012.49 1012.70 1013.00 1013.36 1013.76 1014.18 1014.61 1015.01 1015.38 1015.68 1015.91 1016.06 1016.13 1016.14 1016.12 1016.10 1016.10 1016.15 1016.26 1016.41 1016.59 1016.75 1016.88 1016.93
1013.80 1014.22 1014.57 1014.84 1015.04 1015.18 1015.26 1015.29 1015.26 1015.17 1015.01 1014.77 1014.45 1014.08 1013.68 1013.29 1012.95 1012.69 1012.54 1012.52 1012.61 1012.82 1013.11 1013.48 1013.88 1014.30 1014.71 1015.09 1015.43 1015.71 1015.93 1016.07 1016.16 1016.19 1016.20 1016.20 1016.22 1016.28 1016.37 1016.50 1016.64 1016.76 1016.85 1016.88
1014.59 1014.89 1015.10 1015.23 1015.31 1015.36 1015.39 1015.42 1015.42 1015.39 1015.30 1015.12 1014.86 1014.53 1014.15 1013.75 1013.39 1013.11 1012.94 1012.90 1012.99 1013.20 1013.49 1013.85 1014.24 1014.63 1015.00 1015.33 1015.62 1015.86 1016.04 1016.18 1016.27 1016.33 1016.36 1016.39 1016.43 1016.48 1016.55 1016.64 1016.74 1016.82 1016.87 1016.87
1015.18 1015.36 1015.44 1015.46 1015.45 1015.45 1015.47 1015.52 1015.59 1015.63 1015.62 1015.53 1015.34 1015.05 1014.69 1014.31 1013.95 1013.67 1013.50 1013.47 1013.56 1013.78 1014.08 1014.43 1014.79 1015.14 1015.45 1015.72 1015.93 1016.11 1016.25 1016.37 1016.46 1016.54 1016.60 1016.66 1016.71 1016.76 1016.82 1016.87 1016.92 1016.95 1016.96 1016.94
1015.48 1015.57 1015.57 1015.53 1015.48 1015.48 1015.54 1015.66 1015.81 1015.95 1016.03 1016.02 1015.89 1015.64 1015.30 1014.93 1014.57 1014.29 1014.13 1014.11 1014.23 1014.47 1014.78 1015.13 1015.47 1015.77 1016.02 1016.21 1016.36 1016.47 1016.56 1016.65 1016.74 1016.83 1016.92 1017.00 1017.07 1017.12 1017.16 1017.17 1017.18 1017.16 1017.14 1017.10
1015.47 1015.52 1015.49 1015.44 1015.43 1015.48 1015.62 1015.85 1016.11 1016.35 1016.52 1016.57 1016.48 1016.25 1015.92 1015.53 1015.17 1014.89 1014.74 1014.75 1014.90 1015.16 1015.50 1015.86 1016.20 1016.47 1016.66 1016.79 1016.86 1016.90 1016.94 1017.00 1017.08 1017.18 1017.29 1017.40 1017.49 1017.54 1017.57 1017.56 1017.52 1017.47 1017.41 1017.35
1015.19 1015.23 1015.22 1015.23 1015.30 1015.46 1015.72 1016.07 1016.44 1016.78 1017.02 1017.12 1017.05 1016.81 1016.46 1016.05 1015.66 1015.38 1015.24 1015.27 1015.46 1015.77 1016.16 1016.55 1016.89 1017.16 1017.32 1017.40 1017.42 1017.41 1017.40 1017.43 1017.50 1017.60 1017.73 1017.86 1017.96 1018.02 1018.04 1018.01 1017.94 1017.86 1017.77 1017.69
1014.72 1014.77 1014.82 1014.92 1015.10 1015.38 1015.78 1016.25 1016.73 1017.15 1017.44 1017.55 1017.47 1017.21 1016.82 1016.38 1015.97 1015.68 1015.55 1015.61 1015.86 1016.23 1016.68 1017.13 1017.51 1017.80 1017.96 1018.02 1018.00 1017.95 1017.91 1017.91 1017.97 1018.07 1018.21 1018.35 1018.47 1018.54 1018.56 1018.51 1018.42 1018.31 1018.19 1018.09
1014.17 1014.25 1014.36 1014.55 1014.84 1015.25 1015.75 1016.32 1016.88 1017.34 1017.65 1017.76 1017.65 1017.36 1016.93 1016.45 1016.03 1015.74 1015.64 1015.75 1016.05 1016.51 1017.04 1017.56 1018.01 1018.35 1018.54 1018.61 1018.59 1018.52 1018.46 1018.44 1018.47 1018.57 1018.72 1018.87 1019.00 1019.09 1019.11 1019.06 1018.96 1018.82 1018.68 1018.55
1013.67 1013.77 1013.93 1014.18 1014.55 1015.03 1015.61 1016.23 1016.81 1017.28 1017.58 1017.66 1017.52 1017.19 1016.73 1016.24 1015.82 1015.55 1015.49 1015.67 1016.05 1016.59 1017.21 1017.83 1018.36 1018.77 1019.02 1019.12 1019.12 1019.06 1018.99 1018.96 1018.99 1019.09 1019.23 1019.39 1019.54 1019.63 1019.67 1019.63 1019.52 1019.38 1019.22 1019.07
1013.36 1013.45 1013.61 1013.89 1014.28 1014.78 1015.35 1015.94 1016.49 1016.92 1017.17 1017.21 1017.03 1016.68 1016.22 1015.75 1015.36 1015.14 1015.14 1015.38 1015.85 1016.48 1017.19 1017.90 1018.53 1019.02 1019.35 1019.52 1019.56 1019.53 1019.48 1019.45 1019.48 1019.57 1019.71 1019.88 1020.04 1020.16 1020.21 1020.20 1020.11 1019.97 1019.81 1019.65
1013.29 1013.35 1013.49 1013.73 1014.08 1014.51 1015.01 1015.52 1015.97 1016.31 1016.48 1016.47 1016.26 1015.91 1015.47 1015.04 1014.71 1014.55 1014.63 1014.95 1015.49 1016.20 1017.00 1017.79 1018.51 1019.09 1019.50 1019.75 1019.86 1019.88 1019.86 1019.85 1019.89 1019.99 1020.14 1020.32 1020.50 1020.65 1020.73 1020.75 1020.69 1020.58 1020.44 1020.28
1013.48 1013.49 1013.57 1013.74 1013.99 1014.31 1014.66 1015.02 1015.33 1015.54 1015.61 1015.53 1015.30 1014.95 1014.56 1014.19 1013.94 1013.86 1014.01 1014.40 1015.01 1015.77 1016.63 1017.50 1018.29 1018.95 1019.45 1019.78 1019.97 1020.06 1020.10 1020.14 1020.21 1020.32 1020.49 1020.69 1020.90 1021.08 1021.21 1021.28 1021.27 1021.21 1021.09 1020.96
1013.87 1013.83 1013.85 1013.91 1014.03 1014.18 1014.36 1014.53 1014.66 1014.72 1014.68 1014.52 1014.26 1013.94 1013.59 1013.30 1013.13 1013.13 1013.34 1013.78 1014.42 1015.22 1016.11 1017.01 1017.86 1018.59 1019.18 1019.60 1019.89 1020.07 1020.19 1020.29 1020.41 1020.56 1020.76 1020.99 1021.23 1021.45 1021.64 1021.76 1021.82 1021.82 1021.76 1021.66
1014.35 1014.28 1014.23 1014.19 1014.17 1014.15 1014.14 1014.11 1014.05 1013.94 1013.77 1013.54 1013.26 1012.95 1012.66 1012.43 1012.32 1012.39 1012.64 1013.11 1013.76 1014.56 1015.45 1016.37 1017.25 1018.04 1018.71 1019.23 1019.63 1019.92 1020.14 1020.32 1020.51 1020.72 1020.96 1021.23 1021.51 1021.78 1022.02 1022.21 1022.34 1022.41 1022.42 1022.37
1014.78 1014.69 1014.59 1014.47 1014.33 1014.16 1013.96 1013.75 1013.51 1013.26 1012.97 1012.67 1012.36 1012.06 1011.80 1011.62 1011.57 1011.67 1011.95 1012.40 1013.04 1013.81 1014.68 1015.60 1016.50 1017.34 1018.09 1018.72 1019.23 1019.65 1019.98 1020.27 1020.54 1020.82 1021.11 1021.42 1021.75 1022.07 1022.36 1022.62 1022.82 1022.96 1023.03 1023.05
1015.00 1014.92 1014.80 1014.63 1014.40 1014.11 1013.78 1013.43 1013.05 1012.66 1012.28 1011.91 1011.57 1011.27 1011.04 1010.89 1010.87 1010.98 1011.25 1011.69 1012.28 1013.02 1013.86 1014.76 1015.68 1016.56 1017.39 1018.12 1018.76 1019.31 1019.77 1020.17 1020.54 1020.89 1021.25 1021.61 1021.97 1022.33 1022.68 1022.99 1023.25 1023.45 1023.59 1023.67
1014.90 1014.84 1014.72 1014.54 1014.27 1013.92 1013.51 1013.06 1012.59 1012.12 1011.67 1011.26 1010.89 1010.59 1010.36 1010.23 1010.21 1010.32 1010.57 1010.98 1011.53 1012.23 1013.03 1013.92 1014.86 1015.79 1016.69 1017.54 1018.30 1018.97 1019.56 1020.08 1020.55 1020.98 1021.39 1021.80 1022.20 1022.59 1022.97 1023.32 1023.63 1023.88 1024.07 1024.20
1014.44 1014.39 1014.29 1014.12 1013.85 1013.50 1013.07 1012.59 1012.08 1011.58 1011.09 1010.65 1010.27 1009.96 1009.74 1009.61 1009.59 1009.69 1009.93 1010.30 1010.83 1011.49 1012.28 1013.17 1014.12 1015.11 1016.09 1017.03 1017.90 1018.70 1019.40 1020.03 1020.58 1021.08 1021.55 1021.99 1022.42 1022.84 1023.24 1023.62 1023.96 1024.25 1024.47 1024.63
1013.63 1013.58 1013.51 1013.36 1013.14 1012.83 1012.43 1011.98 1011.49 1010.99 1010.51 1010.07 1009.69 1009.38 1009.16 1009.03 1009.01 1009.11 1009.34 1009.71 1010.22 1010.87 1011.66 1012.56 1013.54 1014.57 1015.62 1016.64 1017.61 1018.50 1019.30 1020.01 1020.63 1021.19 1021.70 1022.17 1022.62 1023.05 1023.47 1023.87 1024.23 1024.54 1024.80 1024.98
1012.58 1012.52 1012.45 1012.35 1012.19 1011.95 1011.63 1011.24 1010.81 1010.36 1009.92 1009.50 1009.14 1008.84 1008.63 1008.51 1008.50 1008.61 1008.85 1009.22 1009.74 1010.41 1011.21 1012.13 1013.15 1014.22 1015.31 1016.39 1017.42 1018.38 1019.24 1020.00 1020.68 1021.27 1021.81 1022.30 1022.76 1023.21 1023.64 1024.04 1024.42 1024.76 1025.04 1025.26
1011.43 1011.33 1011.27 1011.21 1011.11 1010.96 1010.75 1010.46 1010.12 1009.74 1009.36 1008.99 1008.66 1008.38 1008.19 1008.09 1008.10 1008.23 1008.49 1008.89 1009.43 1010.13 1010.95 1011.90 1012.94 1014.04 1015.16 1016.26 1017.32 1018.30 1019.19 1019.98 1020.67 1021.29 1021.84 1022.34 1022.82 1023.27 1023.72 1024.14 1024.54 1024.90 1025.22 1025.47
1010.33 1010.18 1010.12 1010.10 1010.08 1010.02 1009.91 1009.74 1009.50 1009.21 1008.90 1008.58 1008.29 1008.04 1007.87 1007.79 1007.83 1007.99 1008.28 1008.72 1009.31 1010.03 1010.89 1011.86 1012.91 1014.01 1015.13 1016.23 1017.27 1018.24 1019.12 1019.90 1020.59 1021.20 1021.75 1022.27 1022.76 1023.23 1023.69 1024.15 1024.58 1024.97 1025.32 1025.62
1009.43 1009.23 1009.16 1009.18 1009.22 1009.26 1009.26 1009.19 1009.05 1008.85 1008.60 1008.34 1008.08 1007.86 1007.71 1007.66 1007.72 1007.91 1008.24 1008.72 1009.35 1010.10 1010.98 1011.96 1013.01 1014.09 1015.18 1016.23 1017.23 1018.16 1018.99 1019.74 1020.41 1021.01 1021.56 1022.08 1022.58 1023.08 1023.57 1024.06 1024.53 1024.97 1025.37 1025.71
1008.79 1008.57 1008.51 1008.55 1008.66 1008.78 1008.86 1008.88 1008.83 1008.70 1008.51 1008.29 1008.06 1007.86 1007.73 1007.69 1007.77 1007.99 1008.35 1008.86 1009.52 1010.30 1011.19 1012.16 1013.19 1014.23 1015.26 1016.25 1017.19 1018.04 1018.82 1019.52 1020.15 1020.73 1021.27 1021.80 1022.32 1022.85 1023.37 1023.90 1024.42 1024.91 1025.35 1025.75
1008.47 1008.24 1008.19 1008.27 1008.42 1008.60 1008.75 1008.84 1008.84 1008.76 1008.61 1008.42 1008.21 1008.02 1007.89 1007.86 1007.96 1008.19 1008.58 1009.11 1009.78 1010.57 1011.46 1012.41 1013.39 1014.38 1015.35 1016.27 1017.12 1017.91 1018.62 1019.26 1019.86 1020.41 1020.95 1021.49 1022.03 1022.58 1023.14 1023.71 1024.27 1024.80 1025.30 1025.74
Thickness
5825 5822 5819 5826 5833 5834 5832 5827 5823 5827 5837 5831 5828 5829 5831 5834 5830 5828 5825 5823 5819 5817 5817 5813 5808 5804 5799 5793 5787 5782 5778 5775 5771 5767 5764 5761 5759 5760 5759 5758 5756 5755 5754 5753
5809 5810 5823 5829 5829 5826 5825 5820 5821 5825 5831 5828 5826 5828 5836 5835 5832 5832 5829 5826 5825 5821 5818 5814 5810 5806 5801 5795 5790 5785 5781 5778 5775 5772 5768 5765 5763 5763 5763 5762 5759 5757 5756 5755
5805 5815 5821 5817 5814 5814 5817 5818 5819 5817 5822 5828 5823 5820 5828 5834 5837 5836 5835 5833 5831 5826 5820 5816 5812 5809 5805 5799 5794 5791 5786 5782 5778 5775 5772 5769 5764 5763 5764 5762 5761 5759 5757 5756
5803 5809 5810 5809 5810 5814 5807 5823 5822 5817 5812 5813 5816 5806 5824 5832 5831 5832 5833 5834 5833 5832 5827 5822 5816 5812 5808 5805 5801 5795 5789 5785 5781 5778 5775 5770 5765 5764 5764 5764 5764 5761 5759 5757
5794 5802 5802 5803 5811 5814 5814 5820 5818 5816 5812 5811 5813 5807 5822 5831 5825 5831 5835 5837 5837 5837 5833 5827 5823 5818 5814 5810 5805 5799 5792 5788 5784 5781 5777 5772 5769 5768 5768 5766 5764 5762 5761 5758
5797 5806 5808 5810 5816 5816 5813 5811 5808 5811 5811 5790 5803 5801 5808 5828 5828 5834 5839 5840 5840 5840 5836 5831 5828 5823 5817 5814 5809 5803 5795 5790 5787 5783 5780 5775 5772 5769 5767 5764 5763 5762 5761 5760
5778 5790 5803 5812 5801 5804 5806 5796 5781 5777 5780 5786 5806 5799 5809 5833 5838 5837 5838 5840 5843 5843 5839 5833 5828 5823 5819 5814 5810 5805 5798 5792 5789 5785 5781 5778 5774 5770 5767 5765 5764 5762 5762 5760
5768 5772 5792 5802 5802 5797 5801 5802 5783 5772 5777 5791 5794 5794 5817 5835 5839 5841 5841 5841 5842 5842 5840 5835 5832 5827 5822 5817 5812 5807 5800 5794 5791 5786 5782 5779 5776 5773 5771 5768 5767 5765 5763 5761
5776 5776 5795 5802 5809 5807 5794 5799 5813 5797 5791 5786 5796 5803 5818 5832 5833 5835 5837 5838 5839 5839 5839 5837 5835 5830 5825 5819 5814 5809 5802 5796 5791 5788 5784 5780 5777 5774 5772 5770 5766 5765 5763 5762
5784 5772 5782 5792 5797 5799 5807 5805 5795 5787 5770 5770 5785 5792 5804 5815 5821 5828 5830 5833 5836 5837 5837 5835 5833 5829 5825 5821 5816 5810 5804 5797 5793 5788 5784 5781 5777 5774 5771 5768 5765 5763 5762 5760
5782 5770 5770 5778 5779 5784 5787 5790 5793 5791 5790 5777 5776 5792 5821 5819 5822 5824 5828 5832 5833 5834 5834 5832 5830 5827 5823 5819 5814 5807 5802 5797 5791 5788 5784 5780 5777 5774 5770 5766 5764 5761 5759 5757
5774 5773 5765 5773 5789 5799 5796 5793 5789 5777 5772 5782 5787 5796 5824 5823 5825 5825 5827 5828 5830 5830 5830 5829 5827 5823 5818 5814 5810 5805 5801 5796 5791 5787 5782 5778 5775 5772 5768 5764 5761 5759 5757 5755
5765 5760 5747 5751 5762 5777 5782 5790 5793 5791 5783 5779 5779 5792 5818 5819 5820 5823 5822 5822 5823 5824 5824 5823 5820 5816 5812 5810 5806 5802 5798 5794 5790 5785 5780 5775 5772 5768 5765 5762 5759 5756 5754 5752
5765 5757 5758 5757 5768 5776 5772 5779 5786 5784 5775 5776 5783 5796 5804 5809 5811 5814 5816 5816 5818 5818 5817 5815 5812 5810 5808 5805 5802 5799 5795 5791 5787 5782 5777 5772 5768 5765 5762 5759 5756 5753 5751 5748
5757 5750 5758 5770 5777 5780 5777 5777 5780 5780 5786 5783 5789 5795 5804 5808 5809 5810 5811 5811 5811 5811 5811 5809 5807 5805 5803 5800 5797 5794 5790 5787 5783 5778 5773 5768 5765 5761 5758 5755 5752 5749 5746 5743
5749 5746 5751 5753 5765 5769 5768 5775 5778 5780 5786 5788 5791 5793 5810 5811 5810 5806 5805 5805 5805 5805 5806 5805 5803 5801 5798 5796 5793 5789 5785 5781 5778 5773 5769 5765 5761 5758 5754 5751 5748 5744 5740 5737
5740 5738 5739 5743 5754 5754 5750 5769 5775 5778 5786 5788 5782 5793 5801 5799 5799 5800 5801 5802 5802 5802 5802 5801 5799 5797 5794 5792 5789 5784 5781 5777 5773 5768 5764 5761 5758 5753 5749 5747 5742 5738 5734 5730
5733 5732 5738 5742 5737 5723 5760 5783 5783 5780 5784 5791 5792 5795 5795 5797 5800 5802 5803 5800 5799 5800 5799 5798 5797 5794 5792 5789 5786 5781 5777 5772 5767 5763 5759 5756 5753 5749 5745 5741 5736 5732 5728 5724
5733 5730 5733 5734 5729 5736 5753 5768 5773 5769 5771 5786 5786 5788 5791 5794 5792 5794 5800 5800 5799 5799 5798 5796 5794 5792 5788 5784 5781 5776 5772 5767 5762 5757 5754 5751 5748 5743 5739 5734 5730 5726 5722 5718
5722 5727 5729 5728 5723 5724 5749 5769 5777 5770 5758 5782 5784 5782 5784 5785 5779 5785 5795 5796 5795 5795 5794 5792 5790 5787 5782 5779 5776 5771 5766 5761 5756 5753 5749 5745 5741 5736 5732 5728 5723 5720 5716 5712
5709 5712 5720 5723 5723 5739 5758 5766 5765 5746 5758 5778 5781 5780 5780 5781 5785 5788 5790 5789 5790 5789 5788 5787 5784 5780 5776 5774 5770 5765 5760 5755 5752 5748 5743 5739 5735 5730 5726 5721 5717 5713 5710 5706
5714 5715 5714 5722 5719 5729 5753 5757 5754 5758 5768 5773 5775 5777 5777 5779 5781 5782 5782 5782 5782 5782 5781 5780 5777 5772 5770 5768 5764 5758 5753 5750 5746 5741 5736 5732 5728 5725 5720 5715 5711 5707 5704 5699
5717 5722 5728 5728 5730 5739 5751 5754 5756 5760 5761 5765 5769 5772 5773 5772 5773 5775 5775 5775 5775 5774 5773 5773 5770 5765 5763 5761 5759 5752 5747 5744 5739 5734 5730 5725 5722 5717 5714 5710 5705 5701 5698 5697
5706 5713 5720 5720 5727 5733 5740 5745 5749 5753 5755 5760 5764 5766 5767 5766 5769 5769 5769 5768 5767 5767 5766 5765 5762 5759 5755 5754 5751 5747 5743 5738 5734 5728 5723 5719 5715 5711 5706 5703 5700 5697 5694 5692
5702 5706 5710 5713 5721 5727 5732 5737 5742 5746 5751 5754 5758 5761 5761 5762 5762 5763 5762 5761 5761 5761 5760 5759 5756 5753 5749 5747 5744 5741 5737 5733 5727 5722 5717 5713 5709 5705 5699 5694 5689 5689 5685 5684
5700 5703 5706 5711 5717 5724 5725 5732 5737 5739 5742 5746 5748 5750 5754 5756 5755 5755 5755 5755 5754 5753 5753 5751 5749 5746 5743 5740 5736 5734 5730 5727 5722 5716 5712 5709 5705 5700 5695 5689 5681 5674 5674 5671